Other Public Products
Issued by NWS Grand Forks, ND

Home | Current Version | Previous Version | Graphics & Text | Print | Product List | Glossary On
Versions: 1 2 3 4 5 6 7 8 9 10 11 12 13 14 15 16 17 18 19 20 21 22 23 24 25 26 27 28 29 30 31 32 33 34 35 36 37 38 39 40 41 42 43 44 45 46 47 48 49 50
000
FPUS83 KFGF 230731
OPUFGF
PRAIRIE TO PINES WEATHER ROUNDUP
NATIONAL WEATHER SERVICE EASTERN NORTH DAKOTA/GRAND FORKS ND
100 AM CST THU NOV 23 2017

 **SATELLITE DATA USED TO AUGMENT SKY COVER AT AUTOMATED STATIONS**
 *****  WEATHER ACROSS EASTERN NORTH DAKOTA  *****

CITY           SKY/WX    TMP DP  RH WIND       PRES   REMARKS
GRAND FORKS    FAIR      20  18  92 W5        29.94F WCI  13
GRND FORKS AFB CLOUDY    23  19  86 W3        29.94S
GRND FORKS NWS   N/A     21 N/A N/A W3          N/A
BUXTON           N/A     24  20  86 NW3         N/A
DEVILS LAKE    CLOUDY    29  26  89 W9        29.93F WCI  20
FARGO          FAIR      20  15  81 W5        29.96R WCI  13
WAHPETON ARPT  NOT AVBL
$$

 *****  WEATHER ACROSS CENTRAL AND WESTERN NORTH DAKOTA  *****

CITY           SKY/WX    TMP DP  RH WIND       PRES   REMARKS
JAMESTOWN      CLOUDY    29  24  82 W6        29.95F WCI  23
BISMARCK       FAIR      23  19  85 CALM      29.97F
MINOT          FAIR      25  21  85 SW7       29.91F WCI  17
MINOT AFB      FAIR      21  19  90 S7        29.90F WCI  13
GARRISON         N/A     26  23  88 SW3       29.93F
WILLISTON      FAIR      24  21  88 S3        29.90F
DICKINSON      FAIR      31  30  96 S7        29.91F WCI  24
HETTINGER      FAIR      34  31  88 NW5       29.98F
$$

 *****  OTHER OBSERVATIONS NORTHEAST NORTH DAKOTA  *****

CITY           SKY/WX    TMP DP  RH WIND       PRES   REMARKS
WALHALLA       FAIR      19  19 100 NW3       29.92S
LANGDON        CLOUDY    21  21 100 W8        29.90F WCI  12
CAVALIER       FAIR      14  12  92 CALM      29.93R
GRAFTON        FAIR      18  18 100 W5        29.96F WCI  11
CANDO          CLOUDY    27  27 100 W8        29.92F WCI  18
FORT TOTTEN      N/A     28  25  88 W5        29.95S WCI  23
ROLLA          CLOUDY    25  25 100 SW8       29.89F WCI  16
RUGBY          FAIR      23  21  93 SW7       29.91F WCI  15
 ***** THE ABOVE OBSERVATIONS ARE NON NWS ARE NOT QUALITY
        CONTROLLED AND MAY MIS-REPORT RAIN FOR SNOW...
$$

 *****  OTHER OBSERVATIONS SOUTHEAST NORTH DAKOTA *****

CITY           SKY/WX    TMP DP  RH WIND       PRES   REMARKS
COOPERSTOWN    CLOUDY    28  27  93 W7        29.94S WCI  21
VALLEY CITY    CLOUDY    27  27 100 W10       29.96F WCI  17
OAKES            N/A     21  21 100 NW6       29.97S WCI  14
GWINNER          N/A     25  19  80 NW14      29.96S WCI  13
SHEYENNE NWR     N/A     23  17  78 NW7       29.95S WCI  15
BUFFALO          N/A     28  22  79 SW6         N/A  WCI  21
WYNDMERE       NOT AVBL
 ***** THE ABOVE OBSERVATIONS ARE NON NWS ARE NOT QUALITY
       CONTROLLED AND MAY MIS-REPORT RAIN FOR SNOW...
$$

  *****  WEATHER ACROSS NORTHERN MINNESOTA  *****

CITY           SKY/WX    TMP DP  RH WIND       PRES   REMARKS
FLAG ISLAND    FAIR      19  18  93 SW3       29.88F
WARROAD        FAIR      16  12  86 SW3       29.90F
ROSEAU         FAIR      18  12  79 SW5       29.89F WCI  11
HALLOCK        FAIR      16  14  93 CALM      29.92F
THF RVR FALLS  FAIR      16  14  92 CALM      29.93F
HALSTAD          N/A     21  14  75 CALM        N/A
FOSSTON        FAIR      12   9  85 CALM      29.93S
BAUDETTE       CLOUDY    20  17  88 CALM      29.90S
WASKISH        FAIR      19  18  93 CALM      29.91F
CROOKSTON      FAIR      18  16  93 SW3       29.94F
$$
  *****  WEATHER ACROSS CENTRAL AND WEST MINNESOTA  *****

CITY           SKY/WX    TMP DP  RH WIND       PRES   REMARKS
BEMIDJI        CLOUDY    19  16  88 CALM      29.91F
PARK RAPIDS    FAIR      13  10  88 CALM      29.91F
WADENA         FAIR      18  14  86 CALM      29.91S
DETROIT LAKES  FAIR      23  18  80 CALM      29.93S
MOORHEAD       FAIR      19  12  73 CALM      29.95F
FERGUS FALLS   FAIR      21  16  79 NE3       29.96R
ELBOW LAKE     FAIR      20  18  89 CALM      29.93R FOG
MORRIS MN      FAIR      21  16  79 NW6       29.92R WCI  14
STAPLES        FAIR      16  12  86 CALM      29.91F
WHEATON        FAIR      27  19  74 NW9       29.96S WCI  17
$$
  *****  WEATHER ELSEWHERE ACROSS MINNESOTA  *****

CITY           SKY/WX    TMP DP  RH WIND       PRES   REMARKS
DULUTH         CLOUDY    22  20  92 W8        29.91F WCI  12
INTRNTL FALLS  CLOUDY    18  15  88 SW5       29.90S WCI  11
ELY            FAIR      18  16  93 SW3       29.89F
CLOQUET        CLOUDY    21  19  93 CALM      29.91F
BRAINERD       FAIR      16  12  84 CALM      29.92F
HIBBING        MOCLDY    18  16  92 CALM      29.92F
ALEXANDRIA     FAIR      18  15  88 CALM      29.92R
SAINT CLOUD    MOCLDY    22  17  81 E5        29.92S WCI  16
MINNEAPOLIS    FAIR      28  18  66 SE5       29.92F WCI  23
$$

  *****  WEATHER ACROSS SOUTH DAKOTA  *****

CITY           SKY/WX    TMP DP  RH WIND       PRES   REMARKS
SIOUX FALLS    FAIR      36  29  75 W8        29.94S
BROOKINGS      FAIR      24  19  81 CALM      29.94R
WATERTOWN      FAIR      29  24  82 NW10      29.92S WCI  20
HURON          FAIR      28  25  88 NW8       29.99R WCI  20
SISSETON         N/A     29  22  75 NW13      29.94R WCI  19
ABERDEEN       FAIR      24  22  91 N7        29.99S WCI  16
MITCHELL       FAIR      38  31  76 W7        30.00R
PIERRE         FAIR      38  35  89 N10       29.99S
MOBRIDGE       FAIR      29  27  92 SE3       29.97R
RAPID CITY     FAIR      42  35  76 NW9       30.06F
$$

  *****  SOME WEATHER IN NEARBY STATES *****

CITY           SKY/WX    TMP DP  RH WIND       PRES   REMARKS
GLASGOW MT     FAIR      34  33  96 S8        29.86F
GREAT FALLS MT FAIR      55  39  54 S12       29.98S
CHEYENNE WY    FAIR      50  37  61 W15       30.27S
SCOTTSBLUFF NE FAIR      39  34  82 NW7       30.18S
OMAHA NE       FAIR      31  20  63 SE9       30.00F WCI  23
DES MOINES IA  FAIR      32  17  54 S6        30.00F
DAVENPORT IA   CLOUDY    33  19  56 S13       30.13F WCI  24
CHICAGO IL     CLOUDY    33  18  53 SW8       30.15F
EAU CLAIRE WI  MOCLDY    28  16  60 CALM      29.95F
LA CROSSE WI   CLOUDY    33  18  53 S9        29.98F
$$

  *****  SOME NATIONAL WEATHER *****

CITY           SKY/WX    TMP DP  RH WIND       PRES   REMARKS
LA GUARDIA NY  FAIR      36  21  54 NW12G21   30.09R
RALEIGH NC     MOCLDY    39  27  62 NE5       30.16F
ATLANTA GA     MOCLDY    42  32  67 NW6       30.08S
NEW ORLEANS LA FAIR      50  38  63 N9G20     30.13S
OKLAHOMA CITY  FAIR      33  22  63 S6        30.19F
ALBUQUERQUE NM FAIR      45  28  51 E3        30.34S
SALT LAKE CITY MOCLDY    50  42  74 E10       30.35F
LOS ANGELES CA FAIR      74  45  35 NE6       30.03S
BOISE ID       FAIR      51  47  86 S7        30.17F
SEATTLE WA     HVY RAIN  59  58  96 SW16G26   29.86R FOG
$$

*** WEATHER ACROSS MANITOBA...SASKATCHEWAN AND ONTARIO ***
                ***ONTARIO***

CITY           SKY/WX    TMP DP  RH WIND       PRES   REMARKS
GERALDTON      FLURRIES  19  16  86 SW14      29.76F WCI   6
THUNDER BAY    CLOUDY    25  18  74 W5        29.88F WCI  19
SIOUX LOOKOUT  FLURRIES  19  16  86 W12G23    29.81F WCI   7
TORONTO        MOCLDY    30  21  69 SW8       30.14F WCI  23
BIG TROUT LK   FLURRIES  12  10  92 W12G18    29.64F WCI  -2
PICKLE LAKE    NOT AVBL
DRYDEN         CLOUDY    19  18  93 W15G21    29.83S WCI   5
KENORA         CLOUDY    18  18 100 W6        29.86F WCI   9
$$
                *** MANITOBA***

CITY           SKY/WX    TMP DP  RH WIND       PRES   REMARKS
BRANDON        FLURRIES  18  14  86 W7        29.90F WCI   8
DAUPHIN        CLOUDY    23  16  74 W8        29.88S WCI  14
ISLAND LAKE    FLURRIES   7   1  78 W13       29.80R WCI  -9
PILOT MOUND      N/A     18  16  93 W5          N/A  WCI  11
THE PAS        MOCLDY     3  -2  78 W3        29.90R
THOMPSON       MOCLDY     3  -4  72 NW9       29.84R WCI -11
WINNIPEG       CLOUDY    18  16  93 SW7       29.91F WCI   8
LYNN LAKE      CLEAR     -4  -8  84 NW6       29.85F WCI -16
CHURCHILL      CRYSTALS  -2  -9  71 NW22G30   29.71R WCI -26
GILLAM         FLURRIES   5  -2  72 NW13      29.77  WCI -12
$$
                ***SASKATCHEWAN***

CITY           SKY/WX    TMP DP  RH WIND       PRES   REMARKS
ESTEVAN        MOCLDY    18  16  93 SW6       29.87F WCI   9
KINDERSLEY     PTCLDY    19  16  86 SW9       29.66F WCI   9
LLOYDMINSTER   CLEAR     14  10  85 SE10      29.60F WCI   1
PRINCE ALBERT  NOT AVBL
REGINA         MOCLDY    18  16  93 SE12      29.80F WCI   5
YORKTON        CLOUDY    21  19  93 SW2       29.84F


USA.gov is the U.S. government's official web portal to all federal, state and local government web resources and services.